Togiak, AK

2:25 AM AKST on November 24, 2017 (GMT -0900)
Togiak

Weather History for PATG - October, 2012

Change the Weather History Date:

Saturday, October 20, 2012

  Actual Average Record
Temperature  
Mean Temperature 29 °F -  
Max Temperature 39 °F 35 °F 46 °F (2006)
Min Temperature 19 °F 23 °F 12 °F (2001)
Degree Days  
Heating Degree Days 36    
Moisture  
Dew Point 22 °F    
Average Humidity 79    
Maximum Humidity 93    
Minimum Humidity 61    
Precipitation  
Precipitation 0.00 in - - ()
Sea Level Pressure  
Sea Level Pressure 30.49 in    
Wind  
Wind Speed 6 mph (North)    
Max Wind Speed 12 mph    
Max Gust Speed -    
Visibility 10 miles    
Events      
Averages and records for this station are not official NWS values.
T = Trace of Precipitation, MM = Missing Value Source: NWS Daily Summary

Daily Weather History Graph

Daily Weather History Graph

Search for Another Location

Airport or City:

Trip Planner

Search our weather history database for the weather conditions in past years. The results will help you decide how hot, cold, wet, or windy it might be!

Date:

Astronomy

Oct. 20, 2012 Rise Set
Actual Time 9:32 AM AKDT 7:18 PM AKDT
Civil Twilight 8:50 AM AKDT 8:00 PM AKDT
Nautical Twilight 8:03 AM AKDT 8:47 PM AKDT
Astronomical Twilight 7:16 AM AKDT 9:34 PM AKDT
Moon 3:59 PM AKDT (10/20) 11:40 PM AKDT (10/20)
Length of Visible Light 11h 09m
Length of Day
9h 46m
Waxing Crescent, 35% of the Moon is Illuminated
Oct 20
Waxing Crescent
Oct 21
First Quarter
Oct 29
Full
Nov 6
Last Quarter
Nov 13
New

Hourly Weather History & Observations

Time (AKDT) Temp. Windchill Dew Point Humidity Pressure Visibility Wind Dir Wind Speed Gust Speed Precip Events Conditions
12:16 AM 24.8 °F 16.1 °F 17.6 °F 74% 30.44 in 10.0 mi NE 8.1 mph - N/A   Clear
12:36 AM 24.8 °F 15.3 °F 17.6 °F 74% 30.45 in 10.0 mi NE 9.2 mph - N/A   Clear
12:56 AM 21.2 °F 13.6 °F 15.8 °F 80% 30.45 in 10.0 mi NNE 5.8 mph - N/A   Clear
1:16 AM 21.2 °F 13.6 °F 17.6 °F 86% 30.46 in 10.0 mi NNW 5.8 mph - N/A   Clear
1:36 AM 19.4 °F 10.4 °F 17.6 °F 93% 30.47 in 10.0 mi North 6.9 mph - N/A   Clear
1:56 AM 21.2 °F 12.6 °F 15.8 °F 80% 30.47 in 10.0 mi NNW 6.9 mph - N/A   Clear
2:16 AM 21.2 °F 16.4 °F 17.6 °F 86% 30.47 in 10.0 mi NW 3.5 mph - N/A   Clear
2:36 AM 23.0 °F 14.7 °F 17.6 °F 80% 30.47 in 10.0 mi NNE 6.9 mph - N/A   Clear
2:56 AM 19.4 °F 10.4 °F 15.8 °F 86% 30.47 in 10.0 mi NNE 6.9 mph - N/A   Clear
3:16 AM 19.4 °F 7.2 °F 17.6 °F 93% 30.47 in 10.0 mi NNE 11.5 mph - N/A   Clear
3:36 AM 19.4 °F 9.5 °F 15.8 °F 86% 30.48 in 10.0 mi NNE 8.1 mph - N/A   Clear
3:56 AM 19.4 °F 8.6 °F 15.8 °F 86% 30.48 in 10.0 mi North 9.2 mph - N/A   Clear
4:16 AM 23.0 °F 14.7 °F 17.6 °F 80% 30.49 in 10.0 mi North 6.9 mph - N/A   Clear
4:36 AM 21.2 °F 12.6 °F 17.6 °F 86% 30.49 in 10.0 mi NNW 6.9 mph - N/A   Clear
4:56 AM 21.2 °F 13.6 °F 15.8 °F 80% 30.50 in 10.0 mi NNE 5.8 mph - N/A   Clear
5:16 AM 23.0 °F 13.9 °F 17.6 °F 80% 30.50 in 10.0 mi NE 8.1 mph - N/A   Clear
5:36 AM 21.2 °F 12.6 °F 15.8 °F 80% 30.50 in 10.0 mi North 6.9 mph - N/A   Clear
5:56 AM 21.2 °F 13.6 °F 15.8 °F 80% 30.50 in 10.0 mi NE 5.8 mph - N/A   Clear
6:16 AM 21.2 °F 14.9 °F 17.6 °F 86% 30.50 in 10.0 mi NW 4.6 mph - N/A   Clear
6:36 AM 21.2 °F 13.6 °F 15.8 °F 80% 30.49 in 10.0 mi WNW 5.8 mph - N/A   Clear
6:56 AM 24.8 °F - 17.6 °F 74% 30.50 in 10.0 mi Calm Calm - N/A   Clear
7:16 AM 26.6 °F 20.0 °F 17.6 °F 69% 30.50 in 10.0 mi North 5.8 mph - N/A   Clear
7:36 AM 21.2 °F 12.6 °F 15.8 °F 80% 30.50 in 10.0 mi North 6.9 mph - N/A   Clear
7:56 AM 21.2 °F 13.6 °F 17.6 °F 86% 30.50 in 10.0 mi NNE 5.8 mph - N/A   Clear
8:16 AM 23.0 °F 15.8 °F 17.6 °F 80% 30.50 in 10.0 mi NE 5.8 mph - N/A   Clear
8:36 AM 23.0 °F 14.7 °F 17.6 °F 80% 30.50 in 10.0 mi North 6.9 mph - N/A   Clear
8:56 AM 19.4 °F 11.5 °F 15.8 °F 86% 30.50 in 10.0 mi NNE 5.8 mph - N/A   Clear
9:16 AM 21.2 °F 13.6 °F 15.8 °F 80% 30.50 in 10.0 mi North 5.8 mph - N/A   Clear
9:36 AM 19.4 °F 11.5 °F 15.8 °F 86% 30.50 in 10.0 mi NNE 5.8 mph - N/A   Clear
9:56 AM 19.4 °F 12.8 °F 15.8 °F 86% 30.50 in 10.0 mi NNE 4.6 mph - N/A   Clear
10:16 AM 21.2 °F - 17.6 °F 86% 30.51 in 10.0 mi Calm Calm - N/A   Clear
10:36 AM 24.8 °F - 19.4 °F 80% 30.52 in 10.0 mi Calm Calm - N/A   Clear
10:56 AM 24.8 °F 17.9 °F 21.2 °F 86% 30.51 in 10.0 mi North 5.8 mph - N/A   Clear
11:16 AM 26.6 °F 20.0 °F 23.0 °F 86% 30.51 in 10.0 mi North 5.8 mph - N/A   Clear
11:36 AM 28.4 °F 22.2 °F 24.8 °F 86% 30.51 in 10.0 mi NNE 5.8 mph - N/A   Clear
11:56 AM 30.2 °F 23.4 °F 24.8 °F 80% 30.51 in 10.0 mi NE 6.9 mph - N/A   Clear
12:16 PM 32.0 °F 26.4 °F 24.8 °F 75% 30.51 in 10.0 mi NE 5.8 mph - N/A   Clear
12:36 PM 33.8 °F 29.6 °F 24.8 °F 70% 30.51 in 10.0 mi NNE 4.6 mph - N/A   Clear
12:56 PM 33.8 °F - 26.6 °F 75% 30.51 in 10.0 mi Calm Calm - N/A   Clear
1:16 PM 35.6 °F 32.8 °F 26.6 °F 70% 30.50 in 10.0 mi East 3.5 mph - N/A   Clear
1:36 PM 35.6 °F 31.7 °F 28.4 °F 75% 30.50 in 10.0 mi East 4.6 mph - N/A   Clear
1:56 PM 37.4 °F 34.9 °F 28.4 °F 70% 30.50 in 10.0 mi ESE 3.5 mph - N/A   Clear
2:16 PM 37.4 °F 32.8 °F 28.4 °F 70% 30.50 in 10.0 mi East 5.8 mph - N/A   Clear
2:36 PM 37.4 °F 32.8 °F 26.6 °F 65% 30.49 in 10.0 mi East 5.8 mph - N/A   Clear
2:56 PM 39.2 °F 37.0 °F 26.6 °F 61% 30.49 in 10.0 mi East 3.5 mph - N/A   Clear
3:16 PM 39.2 °F 37.0 °F 26.6 °F 61% 30.49 in 10.0 mi East 3.5 mph - N/A   Clear
3:36 PM 39.2 °F 35.9 °F 26.6 °F 61% 30.49 in 10.0 mi SSE 4.6 mph - N/A   Clear
3:56 PM 39.2 °F 35.0 °F 28.4 °F 65% 30.48 in 10.0 mi SW 5.8 mph - N/A   Clear
4:16 PM 39.2 °F 35.0 °F 30.2 °F 70% 30.48 in 10.0 mi SW 5.8 mph - N/A   Clear
4:36 PM 39.2 °F 35.0 °F 28.4 °F 65% 30.48 in 10.0 mi SW 5.8 mph - N/A   Clear
4:56 PM 39.2 °F 35.9 °F 30.2 °F 70% 30.47 in 10.0 mi SW 4.6 mph - N/A   Clear
5:16 PM 39.2 °F 35.0 °F 28.4 °F 65% 30.47 in 10.0 mi SW 5.8 mph - N/A   Clear
5:36 PM 37.4 °F 32.1 °F 30.2 °F 75% 30.47 in 10.0 mi SW 6.9 mph - N/A   Clear
5:56 PM 37.4 °F 32.1 °F 26.6 °F 65% 30.47 in 10.0 mi WSW 6.9 mph - N/A   Clear
6:36 PM 37.4 °F 31.4 °F 28.4 °F 70% 30.47 in 10.0 mi SW 8.1 mph - N/A   Clear
6:56 PM 35.6 °F 30.7 °F 28.4 °F 75% 30.47 in 10.0 mi WSW 5.8 mph - N/A   Clear
7:16 PM 33.8 °F 27.0 °F 26.6 °F 75% 30.47 in 10.0 mi WSW 8.1 mph - N/A   Clear
7:36 PM 32.0 °F 24.8 °F 26.6 °F 80% 30.47 in 10.0 mi WSW 8.1 mph - N/A   Clear
7:56 PM 33.8 °F 27.0 °F 28.4 °F 81% 30.47 in 10.0 mi WSW 8.1 mph - N/A   Clear
8:16 PM 30.2 °F 22.6 °F 24.8 °F 80% 30.48 in 10.0 mi West 8.1 mph - N/A   Clear
8:36 PM 32.0 °F 26.4 °F 24.8 °F 75% 30.47 in 10.0 mi West 5.8 mph - N/A   Clear
8:56 PM 30.2 °F 25.4 °F 26.6 °F 86% 30.48 in 10.0 mi West 4.6 mph - N/A   Clear
9:16 PM 32.0 °F - 26.6 °F 80% 30.48 in 10.0 mi Calm Calm - N/A   Clear
9:36 PM 32.0 °F - 26.6 °F 80% 30.48 in 10.0 mi Calm Calm - N/A   Clear
9:56 PM 28.4 °F 22.2 °F 23.0 °F 80% 30.48 in 10.0 mi North 5.8 mph - N/A   Clear
10:16 PM 26.6 °F 17.5 °F 24.8 °F 93% 30.48 in 10.0 mi North 9.2 mph - N/A   Clear
10:36 PM 24.8 °F 19.1 °F 21.2 °F 86% 30.48 in 10.0 mi NNE 4.6 mph - N/A   Clear
10:56 PM 23.0 °F 14.7 °F 21.2 °F 93% 30.48 in 10.0 mi North 6.9 mph - N/A   Clear
11:16 PM 23.0 °F 14.7 °F 19.4 °F 86% 30.48 in 10.0 mi North 6.9 mph - N/A   Clear
11:36 PM 21.2 °F 11.7 °F 19.4 °F 93% 30.47 in 10.0 mi North 8.1 mph - N/A   Clear
11:56 PM 21.2 °F 12.6 °F 19.4 °F 93% 30.47 in 10.0 mi North 6.9 mph - N/A   Clear